Location: Melita
(38.4566°N, 122.6369°W)
Time: 10:31:28
(UTC+00:00)

Genesis I - Pass Details

Date: 24 January 2020
Orbit: 496 x 528 km, 64.5° (Epoch: 19 February)

Event Time Altitude Azimuth Distance (km) Brightness Sun altitude
Exits shadow 13:41:44 22° 352° (N) 1,158 4.8 -19.6°
Maximum altitude 13:43:54 44° 55° (NE) 704 4.1 -19.2°
Drops below altitude 10° 13:47:33 10° 129° (SE) 1,701 6.7 -18.5°
Sets 13:49:45 0° 135° (SE) 2,576 7.7 -18.1°
